Weather History for Grand Forks AFB, ND

Change the Weather History Date:

Friday, November 23, 2012

  Actual Average Record
Temperature  
Mean Temperature 10 °F -  
Max Temperature 16 °F 30 °F 58 °F (2011)
Min Temperature 4 °F 14 °F -11 °F (2013)
Degree Days  
Heating Degree Days 55    
Moisture  
Dew Point 5 °F    
Average Humidity 71    
Maximum Humidity 80    
Minimum Humidity 62    
Precipitation  
Precipitation 0.00 in - - ()
Sea Level Pressure  
Sea Level Pressure 30.47 in    
Wind  
Wind Speed 12 mph (NNW)    
Max Wind Speed 18 mph    
Max Gust Speed 26 mph    
Visibility 10 miles    
Events Snow    
Averages and records for this station are not official NWS values.
T = Trace of Precipitation, MM = Missing Value Source: NWS Daily Summary

Daily Weather History Graph

Daily Weather History Graph

Search for Another Location

Airport:

Trip Planner

Search our weather history database for the weather conditions in past years. The results will help you decide how hot, cold, wet, or windy it might be!

Date:

Astronomy

Nov. 23, 2012 Rise Set
Actual Time 7:48 AM CST 4:43 PM CST
Civil Twilight 7:13 AM CST 5:18 PM CST
Nautical Twilight 6:35 AM CST 5:56 PM CST
Astronomical Twilight 5:58 AM CST 6:33 PM CST
Moon 2:14 PM CST (11/23) 2:50 AM CST (11/23)
Length of Visible Light 10h 04m
Length of Day
8h 55m
Waxing Gibbous, 80% of the Moon is Illuminated
Nov 23
Waxing Gibbous
Nov 28
Full
Dec 6
Last Quarter
Dec 13
New
Dec 19
First Quarter

Hourly Weather History & Observations

Time (CST) Temp. Windchill Dew Point Humidity Pressure Visibility Wind Dir Wind Speed Gust Speed Precip Events Conditions
12:55 AM 12.6 °F -3.8 °F 5.7 °F 74% 30.34 in 10.0 mi NNW 16.1 mph 24.2 mph 0.00 in Snow Light Snow
1:55 AM 13.3 °F -3.9 °F 6.4 °F 74% 30.36 in 10.0 mi NNW 18.4 mph 26.5 mph 0.00 in Snow Light Snow
2:55 AM 14.0 °F -2.5 °F 7.2 °F 74% 30.40 in 10.0 mi NNW 17.3 mph 24.2 mph 0.00 in Snow Light Snow
3:55 AM 14.0 °F -2.0 °F 7.2 °F 74% 30.42 in 10.0 mi NNW 16.1 mph - 0.00 in Snow Light Snow
4:55 AM 14.2 °F -0.6 °F 7.7 °F 75% 30.43 in 10.0 mi NNW 13.8 mph - 0.00 in Snow Light Snow
5:42 AM 14.0 °F -2.0 °F 6.8 °F 73% 30.44 in 10.0 mi NNW 16.1 mph - N/A   Overcast
5:55 AM 14.2 °F -1.2 °F 7.0 °F 73% 30.44 in 10.0 mi NNW 15.0 mph 23.0 mph 0.00 in   Overcast
6:04 AM 14.0 °F -0.2 °F 6.8 °F 73% 30.45 in 10.0 mi NNW 12.7 mph 23.0 mph N/A   Overcast
6:21 AM 14.0 °F -2.0 °F 6.8 °F 73% 30.45 in 10.0 mi NNW 16.1 mph - N/A   Overcast
6:23 AM 14.0 °F -2.0 °F 6.8 °F 73% 30.45 in 10.0 mi NNW 16.1 mph - N/A Snow Light Snow
6:26 AM 14.0 °F -1.4 °F 6.8 °F 73% 30.45 in 10.0 mi NNW 15.0 mph - N/A   Overcast
6:55 AM 13.3 °F -2.4 °F 5.2 °F 70% 30.46 in 10.0 mi NNW 15.0 mph - 0.00 in   Overcast
6:59 AM 12.2 °F -3.1 °F 5.0 °F 73% 30.46 in 10.0 mi NNW 13.8 mph - N/A   Overcast
7:07 AM 12.2 °F -3.7 °F 5.0 °F 73% 30.46 in 10.0 mi NNW 15.0 mph - N/A   Overcast
7:28 AM 12.2 °F -1.0 °F 5.0 °F 73% 30.47 in 10.0 mi NNW 10.4 mph - N/A   Overcast
7:30 AM 12.2 °F -1.0 °F 5.0 °F 73% 30.47 in 10.0 mi NW 10.4 mph - N/A   Overcast
7:41 AM 12.2 °F -1.0 °F 5.0 °F 73% 30.47 in 10.0 mi NW 10.4 mph - N/A   Overcast
7:47 AM 12.2 °F -3.1 °F 5.0 °F 73% 30.47 in 10.0 mi NW 13.8 mph - N/A   Overcast
7:55 AM 11.8 °F -3.0 °F 5.0 °F 74% 30.47 in 10.0 mi NW 12.7 mph - N/A   Overcast
7:56 AM 12.2 °F -1.8 °F 5.0 °F 73% 30.47 in 10.0 mi NW 11.5 mph - N/A   Overcast
8:20 AM 12.2 °F -2.5 °F 5.0 °F 73% 30.47 in 10.0 mi NW 12.7 mph - N/A Snow Light Snow
8:39 AM 12.2 °F -2.5 °F 5.0 °F 73% 30.48 in 10.0 mi NW 12.7 mph - N/A   Overcast
8:40 AM 12.2 °F -1.8 °F 5.0 °F 73% 30.48 in 10.0 mi NW 11.5 mph - N/A Snow Light Snow
8:42 AM 12.2 °F -2.5 °F 5.0 °F 73% 30.48 in 10.0 mi NW 12.7 mph - N/A   Overcast
8:46 AM 12.2 °F -1.8 °F 5.0 °F 73% 30.48 in 10.0 mi NW 11.5 mph - N/A Snow Light Snow
8:55 AM 12.2 °F -1.8 °F 5.4 °F 74% 30.48 in 10.0 mi NW 11.5 mph - 0.00 in Snow Light Snow
8:56 AM 12.2 °F -2.5 °F 5.0 °F 73% 30.48 in 10.0 mi NW 12.7 mph - N/A   Overcast
9:22 AM 14.0 °F 0.5 °F 6.8 °F 73% 30.49 in 10.0 mi NW 11.5 mph - N/A   Overcast
9:36 AM 14.0 °F 1.2 °F 6.8 °F 73% 30.49 in 10.0 mi NW 10.4 mph - N/A   Overcast
9:39 AM 14.0 °F 1.2 °F 6.8 °F 73% 30.49 in 10.0 mi NW 10.4 mph - N/A   Overcast
9:55 AM 15.3 °F 0.2 °F 7.9 °F 73% 30.49 in 10.0 mi NNW 15.0 mph - 0.00 in Snow Light Snow
10:19 AM 15.8 °F 0.3 °F 8.6 °F 73% 30.50 in 8.0 mi North 16.1 mph - N/A Snow Light Snow
10:26 AM 15.8 °F 0.9 °F 8.6 °F 73% 30.50 in 8.0 mi North 15.0 mph 19.6 mph N/A Snow Light Snow
10:30 AM 15.8 °F -0.2 °F 8.6 °F 73% 30.51 in 5.0 mi North 17.3 mph - N/A Snow Light Snow
10:43 AM 15.8 °F 0.3 °F 6.8 °F 68% 30.51 in 9.0 mi North 16.1 mph - N/A Snow Light Snow
10:55 AM 16.0 °F 1.1 °F 8.2 °F 72% 30.51 in 10.0 mi North 15.0 mph - 0.00 in Snow Light Snow
10:56 AM 15.8 °F 0.3 °F 8.6 °F 73% 30.51 in 10.0 mi North 16.1 mph - N/A Snow Light Snow
11:05 AM 15.8 °F 1.4 °F 6.8 °F 68% 30.51 in 10.0 mi NNW 13.8 mph - N/A   Overcast
11:30 AM 15.8 °F 1.4 °F 6.8 °F 68% 30.50 in 8.0 mi North 13.8 mph - N/A Snow Light Snow
11:32 AM 15.8 °F 0.3 °F 6.8 °F 68% 30.50 in 7.0 mi North 16.1 mph - N/A Snow Light Snow
11:51 AM 15.8 °F -0.2 °F 6.8 °F 68% 30.50 in 8.0 mi North 17.3 mph - N/A Snow Light Snow
11:54 AM 15.8 °F 0.9 °F 6.8 °F 68% 30.50 in 10.0 mi North 15.0 mph - N/A Snow Light Snow
11:58 AM 15.8 °F 2.7 °F 5.0 °F 62% 30.51 in 10.0 mi NNW 11.5 mph - N/A   Overcast
11:59 AM 15.8 °F 2.7 °F 5.0 °F 62% 30.51 in 10.0 mi North 11.5 mph - N/A   Overcast
12:00 PM 15.8 °F 2.7 °F 5.0 °F 62% 30.51 in 10.0 mi North 11.5 mph - N/A   Overcast
12:01 PM 15.8 °F 2.7 °F 5.0 °F 62% 30.51 in 10.0 mi North 11.5 mph - N/A   Overcast
12:02 PM 15.8 °F 2.7 °F 5.0 °F 62% 30.51 in 10.0 mi North 11.5 mph - N/A Snow Light Snow
12:08 PM 15.8 °F 2.1 °F 6.8 °F 68% 30.51 in 10.0 mi NNW 12.7 mph - N/A   Overcast
12:11 PM 15.8 °F 2.7 °F 6.8 °F 68% 30.51 in 10.0 mi NNW 11.5 mph - N/A   Overcast
12:22 PM 15.8 °F 2.1 °F 6.8 °F 68% 30.50 in 5.0 mi NNW 12.7 mph - N/A Snow Light Snow
12:25 PM 15.8 °F 1.4 °F 6.8 °F 68% 30.50 in 7.0 mi NNW 13.8 mph - N/A Snow Light Snow
12:43 PM 15.8 °F 2.7 °F 5.0 °F 62% 30.50 in 10.0 mi NNW 11.5 mph - N/A   Overcast
12:46 PM 15.8 °F 2.7 °F 5.0 °F 62% 30.50 in 10.0 mi NW 11.5 mph - N/A   Overcast
12:48 PM 15.8 °F 4.2 °F 5.0 °F 62% 30.49 in 10.0 mi NW 9.2 mph - N/A   Overcast
12:51 PM 15.8 °F 4.2 °F 6.8 °F 68% 30.50 in 10.0 mi NW 9.2 mph - N/A   Overcast
12:57 PM 15.8 °F 2.7 °F 5.0 °F 62% 30.49 in 10.0 mi NW 11.5 mph - N/A   Overcast
1:05 PM 15.8 °F 2.1 °F 5.0 °F 62% 30.50 in 10.0 mi NNW 12.7 mph - N/A Snow Light Snow
1:09 PM 15.8 °F 2.7 °F 6.8 °F 68% 30.49 in 10.0 mi NNW 11.5 mph - N/A Snow Light Snow
1:14 PM 15.8 °F 1.4 °F 6.8 °F 68% 30.49 in 9.0 mi North 13.8 mph - N/A Snow Light Snow
1:17 PM 15.8 °F 2.1 °F 6.8 °F 68% 30.49 in 9.0 mi North 12.7 mph - N/A Snow Light Snow
1:23 PM 15.8 °F 3.4 °F 6.8 °F 68% 30.49 in 9.0 mi North 10.4 mph - N/A Snow Light Snow
1:31 PM 15.8 °F 2.7 °F 6.8 °F 68% 30.49 in 10.0 mi NNW 11.5 mph - N/A Snow Light Snow
1:38 PM 15.8 °F 3.4 °F 5.0 °F 62% 30.49 in 10.0 mi NNW 10.4 mph - N/A   Overcast
1:48 PM 15.8 °F 3.4 °F 5.0 °F 62% 30.49 in 10.0 mi North 10.4 mph - N/A Snow Light Snow
1:53 PM 15.8 °F 3.4 °F 6.8 °F 68% 30.48 in 10.0 mi NNW 10.4 mph - N/A Snow Light Snow
1:55 PM 15.6 °F 3.2 °F 6.3 °F 67% 30.48 in 10.0 mi North 10.4 mph - 0.00 in Snow Light Snow
1:57 PM 15.8 °F 3.4 °F 5.0 °F 62% 30.48 in 10.0 mi North 10.4 mph - N/A Snow Light Snow
1:59 PM 15.8 °F 4.2 °F 5.0 °F 62% 30.48 in 10.0 mi North 9.2 mph - N/A   Overcast
2:04 PM 15.8 °F 4.2 °F 5.0 °F 62% 30.48 in 10.0 mi North 9.2 mph - N/A Snow Light Snow
2:09 PM 15.8 °F 4.2 °F 6.8 °F 68% 30.48 in 9.0 mi North 9.2 mph - N/A Snow Light Snow
2:26 PM 14.0 °F 3.9 °F 6.8 °F 73% 30.48 in 9.0 mi NNW 6.9 mph - N/A Snow Light Snow
2:30 PM 15.8 °F 4.2 °F 6.8 °F 68% 30.48 in 9.0 mi NNW 9.2 mph - N/A Snow Light Snow
2:39 PM 15.8 °F 5.1 °F 6.8 °F 68% 30.48 in 9.0 mi NNW 8.1 mph - N/A Snow Light Snow
2:41 PM 15.8 °F 4.2 °F 6.8 °F 68% 30.48 in 10.0 mi North 9.2 mph - N/A Snow Light Snow
2:43 PM 15.8 °F 5.1 °F 6.8 °F 68% 30.48 in 10.0 mi NNW 8.1 mph - N/A Snow Light Snow
2:55 PM 15.3 °F 4.4 °F 5.9 °F 67% 30.48 in 10.0 mi NNW 8.1 mph - 0.00 in Snow Light Snow
2:57 PM 15.8 °F 2.7 °F 5.0 °F 62% 30.48 in 10.0 mi NW 11.5 mph - N/A   Overcast
3:12 PM 15.8 °F 4.2 °F 5.0 °F 62% 30.48 in 10.0 mi NW 9.2 mph - N/A   Overcast
3:13 PM 14.0 °F 2.9 °F 5.0 °F 67% 30.48 in 10.0 mi NNW 8.1 mph - N/A Snow Light Snow
3:27 PM 14.0 °F 3.9 °F 6.8 °F 73% 30.49 in 10.0 mi NW 6.9 mph - N/A Snow Light Snow
3:35 PM 14.0 °F 2.0 °F 5.0 °F 67% 30.49 in 10.0 mi NNW 9.2 mph - N/A Snow Light Snow
3:39 PM 14.0 °F 3.9 °F 5.0 °F 67% 30.49 in 10.0 mi NNW 6.9 mph - N/A Snow Light Snow
3:40 PM 14.0 °F 3.9 °F 5.0 °F 67% 30.49 in 10.0 mi NNW 6.9 mph - N/A   Overcast
3:47 PM 14.0 °F 1.2 °F 5.0 °F 67% 30.49 in 10.0 mi NNW 10.4 mph - N/A Snow Light Snow
3:50 PM 14.0 °F 2.9 °F 5.0 °F 67% 30.48 in 10.0 mi NNW 8.1 mph - N/A Snow Light Snow
3:53 PM 14.0 °F 2.9 °F 5.0 °F 67% 30.49 in 10.0 mi NNW 8.1 mph - N/A Snow Light Snow
3:54 PM 14.0 °F 2.9 °F 5.0 °F 67% 30.49 in 10.0 mi NNW 8.1 mph - N/A Snow Light Snow
3:55 PM 14.2 °F 3.1 °F 5.2 °F 67% 30.49 in 10.0 mi NNW 8.1 mph - 0.00 in Snow Light Snow
3:57 PM 14.0 °F 3.9 °F 5.0 °F 67% 30.48 in 10.0 mi NW 6.9 mph - N/A   Overcast
4:03 PM 14.0 °F 2.9 °F 5.0 °F 67% 30.48 in 10.0 mi NW 8.1 mph - N/A   Overcast
4:05 PM 14.0 °F 1.2 °F 5.0 °F 67% 30.48 in 10.0 mi NNW 10.4 mph - N/A   Overcast
4:09 PM 14.0 °F 2.9 °F 5.0 °F 67% 30.48 in 10.0 mi NNW 8.1 mph - N/A   Overcast
4:12 PM 14.0 °F 2.9 °F 5.0 °F 67% 30.48 in 10.0 mi NW 8.1 mph - N/A   Overcast
4:15 PM 14.0 °F 3.9 °F 5.0 °F 67% 30.48 in 10.0 mi NNW 6.9 mph - N/A   Overcast
4:17 PM 14.0 °F 3.9 °F 5.0 °F 67% 30.48 in 10.0 mi NNW 6.9 mph - N/A   Overcast
4:20 PM 14.0 °F 2.0 °F 5.0 °F 67% 30.48 in 10.0 mi NNW 9.2 mph - N/A   Overcast
4:23 PM 14.0 °F 3.9 °F 5.0 °F 67% 30.48 in 10.0 mi NNW 6.9 mph - N/A   Overcast
4:26 PM 14.0 °F 3.9 °F 5.0 °F 67% 30.48 in 10.0 mi NNW 6.9 mph - N/A   Overcast
4:29 PM 14.0 °F 3.9 °F 5.0 °F 67% 30.48 in 10.0 mi NNW 6.9 mph - N/A   Overcast
4:31 PM 14.0 °F 2.9 °F 5.0 °F 67% 30.48 in 10.0 mi NNW 8.1 mph - N/A   Overcast
4:55 PM 12.6 °F 1.1 °F 5.7 °F 74% 30.48 in 10.0 mi NW 8.1 mph - 0.00 in   Overcast
4:58 PM 12.2 °F 1.7 °F 5.0 °F 73% 30.48 in 10.0 mi NW 6.9 mph - N/A   Overcast
5:07 PM 12.2 °F 0.7 °F 5.0 °F 73% 30.48 in 10.0 mi NW 8.1 mph - N/A   Overcast
5:14 PM 12.2 °F 0.7 °F 5.0 °F 73% 30.48 in 10.0 mi NW 8.1 mph - N/A   Overcast
5:18 PM 12.2 °F 1.7 °F 5.0 °F 73% 30.48 in 10.0 mi NW 6.9 mph - N/A   Overcast
5:25 PM 12.2 °F 1.7 °F 5.0 °F 73% 30.47 in 10.0 mi NW 6.9 mph - N/A   Overcast
5:33 PM 12.2 °F 0.7 °F 5.0 °F 73% 30.48 in 10.0 mi NW 8.1 mph - N/A   Overcast
5:44 PM 12.2 °F 1.7 °F 5.0 °F 73% 30.47 in 10.0 mi NNW 6.9 mph - N/A   Overcast
5:55 PM 11.1 °F 0.4 °F 4.1 °F 73% 30.47 in 10.0 mi NW 6.9 mph - N/A   Overcast
6:55 PM 8.8 °F -1.1 °F 2.7 °F 76% 30.47 in 10.0 mi WNW 5.8 mph - N/A   Overcast
7:26 PM 6.8 °F -3.5 °F 1.4 °F 79% 30.46 in 10.0 mi WNW 5.8 mph - N/A   Overcast
7:49 PM 6.8 °F -0.1 °F 1.4 °F 79% 30.45 in 10.0 mi WNW 3.5 mph - N/A   Overcast
7:55 PM 7.2 °F 0.3 °F 1.8 °F 79% 30.45 in 10.0 mi WNW 3.5 mph - N/A   Overcast
7:56 PM 6.8 °F -0.1 °F 1.4 °F 79% 30.45 in 10.0 mi NW 3.5 mph - N/A   Overcast
8:01 PM 6.8 °F -0.1 °F 1.4 °F 79% 30.45 in 10.0 mi NW 3.5 mph - N/A   Overcast
8:07 PM 6.8 °F -0.1 °F 1.4 °F 79% 30.44 in 10.0 mi WNW 3.5 mph - N/A   Overcast
8:09 PM 6.8 °F -0.1 °F 1.4 °F 79% 30.44 in 10.0 mi WNW 3.5 mph - N/A   Overcast
8:12 PM 6.8 °F - 1.4 °F 79% 30.44 in 10.0 mi Calm Calm - N/A   Overcast
8:16 PM 6.8 °F - 1.4 °F 79% 30.43 in 10.0 mi Calm Calm - N/A   Overcast
8:55 PM 5.7 °F -4.8 °F 0.5 °F 79% 30.44 in 10.0 mi WNW 5.8 mph - N/A   Overcast
9:01 PM 6.8 °F -3.5 °F 1.4 °F 79% 30.44 in 10.0 mi WNW 5.8 mph - N/A   Overcast
9:04 PM 6.8 °F -3.5 °F 1.4 °F 79% 30.44 in 10.0 mi WNW 5.8 mph - N/A   Overcast
9:55 PM 4.6 °F - -0.4 °F 80% 30.42 in 10.0 mi Calm Calm - N/A   Overcast
10:02 PM 5.0 °F -2.1 °F -0.4 °F 78% 30.41 in 10.0 mi WNW 3.5 mph - N/A   Overcast
10:27 PM 5.0 °F - -0.4 °F 78% 30.40 in 10.0 mi Calm Calm - N/A   Overcast
10:32 PM 5.0 °F - -0.4 °F 78% 30.41 in 10.0 mi Calm Calm - N/A   Overcast
10:46 PM 5.0 °F -4.1 °F -0.4 °F 78% 30.41 in 10.0 mi West 4.6 mph - N/A   Overcast
10:55 PM 5.4 °F - 0.5 °F 80% 30.41 in 10.0 mi Calm Calm - N/A   Overcast
11:02 PM 6.8 °F - 1.4 °F 79% 30.40 in 10.0 mi Calm Calm - N/A   Overcast
11:05 PM 6.8 °F - 1.4 °F 79% 30.40 in 10.0 mi Calm Calm - N/A   Overcast
11:32 PM 6.8 °F - 1.4 °F 79% 30.38 in 10.0 mi Calm Calm - N/A   Overcast
11:39 PM 6.8 °F - 1.4 °F 79% 30.38 in 10.0 mi Calm Calm - N/A   Overcast
11:42 PM 6.8 °F - 1.4 °F 79% 30.38 in 10.0 mi Calm Calm - N/A   Mostly Cloudy
11:46 PM 6.8 °F - 1.4 °F 79% 30.38 in 10.0 mi Calm Calm - N/A   Mostly Cloudy
11:55 PM 6.6 °F - 0.7 °F 77% 30.38 in 10.0 mi Calm Calm - N/A   Mostly Cloudy